Altus, OK

1:36 PM CST on February 08, 2016 (GMT -0600)
Altus Air Force Base

Weather History for KLTS - March, 2013

Change the Weather History Date:

Monday, March 11, 2013

  Actual Average Record
Temperature  
Mean Temperature 42 °F -  
Max Temperature 64 °F 60 °F 86 °F (2014)
Min Temperature 21 °F 36 °F 21 °F (2013)
Degree Days  
Heating Degree Days 22    
Moisture  
Dew Point 25 °F    
Average Humidity 54    
Maximum Humidity 84    
Minimum Humidity 28    
Precipitation  
Precipitation 0.00 in - - ()
Sea Level Pressure  
Sea Level Pressure 30.05 in    
Wind  
Wind Speed 8 mph (SSW)    
Max Wind Speed 13 mph    
Max Gust Speed -    
Visibility 10 miles    
Events      
Averages and records for this station are not official NWS values.
T = Trace of Precipitation, MM = Missing Value Source: NWS Daily Summary

Daily Weather History Graph

Daily Weather History Graph

Search for Another Location

Airport or City:

Trip Planner

Search our weather history database for the weather conditions in past years. The results will help you decide how hot, cold, wet, or windy it might be!

Date:

Astronomy

Mar. 11, 2013 Rise Set
Actual Time 7:52 AM CDT 7:41 PM CDT
Civil Twilight 7:27 AM CDT 8:06 PM CDT
Nautical Twilight 6:58 AM CDT 8:36 PM CDT
Astronomical Twilight 6:29 AM CDT 9:05 PM CDT
Moon 7:28 AM CDT (3/11) 7:53 PM CDT (3/11)
Length of Visible Light 12h 39m
Length of Day
11h 49m
Waning Crescent, 0% of the Moon is Illuminated
Mar 11
Waning Crescent
Mar 11
New
Mar 19
First Quarter
Mar 27
Full
Apr 2
Last Quarter

Hourly Weather History & Observations

Time (CDT) Temp. Windchill Dew Point Humidity Pressure Visibility Wind Dir Wind Speed Gust Speed Precip Events Conditions
12:58 AM 30.9 °F 22.2 °F 20.8 °F 66% 30.14 in 10.0 mi NNW 10.4 mph - N/A   Clear
1:58 AM 32.4 °F 24.0 °F 19.2 °F 58% 30.13 in 10.0 mi NW 10.4 mph - N/A   Clear
2:58 AM 31.1 °F 23.1 °F 18.9 °F 61% 30.12 in 10.0 mi NW 9.2 mph - N/A   Clear
3:58 AM 30.0 °F 24.1 °F 18.1 °F 61% 30.11 in 10.0 mi NW 5.8 mph - N/A   Clear
4:58 AM 27.1 °F 17.5 °F 18.7 °F 70% 30.11 in 10.0 mi NW 10.4 mph - N/A   Clear
5:58 AM 27.9 °F 24.0 °F 17.6 °F 65% 30.11 in 10.0 mi North 3.5 mph - N/A   Clear
6:58 AM 21.4 °F 15.1 °F 16.7 °F 82% 30.12 in 10.0 mi North 4.6 mph - N/A   Clear
7:58 AM 21.6 °F 15.3 °F 17.4 °F 84% 30.12 in 10.0 mi West 4.6 mph - N/A   Clear
8:58 AM 29.1 °F 24.1 °F 19.4 °F 67% 30.13 in 10.0 mi SSW 4.6 mph - N/A   Clear
9:58 AM 33.6 °F 29.4 °F 21.7 °F 62% 30.13 in 10.0 mi West 4.6 mph - N/A   Clear
10:58 AM 38.1 °F 34.6 °F 21.4 °F 51% 30.13 in 10.0 mi Variable 4.6 mph - N/A   Clear
11:58 AM 41.9 °F - 23.2 °F 47% 30.11 in 10.0 mi Variable 2.3 mph - N/A   Clear
12:58 PM 47.8 °F - 27.5 °F 45% 30.09 in 10.0 mi SSW 6.9 mph - N/A   Clear
1:58 PM 52.0 °F - 31.1 °F 45% 30.06 in 10.0 mi South 6.9 mph - N/A   Clear
2:58 PM 56.3 °F - 31.3 °F 39% 30.01 in 10.0 mi South 9.2 mph - N/A   Clear
3:58 PM 59.7 °F - 30.2 °F 33% 29.99 in 10.0 mi South 8.1 mph - N/A   Clear
4:58 PM 63.7 °F - 30.9 °F 29% 29.95 in 10.0 mi South 9.2 mph - N/A   Clear
5:58 PM 64.2 °F - 30.4 °F 28% 29.95 in 10.0 mi SSE 10.4 mph - N/A   Clear
6:58 PM 61.7 °F - 34.3 °F 36% 29.95 in 10.0 mi SE 8.1 mph - N/A   Clear
7:58 PM 52.9 °F - 34.5 °F 50% 29.94 in 10.0 mi ESE 11.5 mph - N/A   Clear
8:58 PM 49.6 °F - 32.5 °F 52% 29.95 in 10.0 mi ESE 12.7 mph - N/A   Clear
9:58 PM 47.8 °F - 32.2 °F 55% 29.96 in 10.0 mi ESE 12.7 mph - N/A   Clear
10:58 PM 45.9 °F 40.0 °F 31.5 °F 57% 29.97 in 10.0 mi ESE 12.7 mph - N/A   Clear
11:58 PM 45.3 °F 40.1 °F 30.2 °F 56% 29.98 in 10.0 mi ESE 10.4 mph - N/A   Clear